Weather History for KROC - October, 2010

Change the Weather History Date:

Tuesday, October 19, 2010

  Actual Average Record
Temperature  
Mean Temperature 48 °F 49 °F  
Max Temperature 56 °F 58 °F 81 °F (1945)
Min Temperature 39 °F 41 °F 22 °F (1972)
Degree Days  
Heating Degree Days 17 16  
Month to date heating degree days 270 241  
Since 1 July heating degree days 435 422  
Cooling Degree Days 0 0  
Month to date cooling degree days 0 0  
Year to date cooling degree days 732 534  
Moisture  
Dew Point 36 °F    
Average Humidity 70    
Maximum Humidity 93    
Minimum Humidity 46    
Precipitation  
Precipitation T in 0.08 in 2.85 in (1996)
Month to date precipitation 2.41 1.69  
Year to date precipitation 30.93 27.67  
Snow  
Snow 0.00 in 0.00 in 0.10 in (1981)
Month to date snowfall 0.0 0.0  
Since 1 July snowfall 0.0 0.0  
Since 1 September snowfall 0.0 0.0  
Snow Depth 0.00 in    
Sea Level Pressure  
Sea Level Pressure 29.89 in    
Wind  
Wind Speed 7 mph (SW)    
Max Wind Speed 18 mph    
Max Gust Speed 23 mph    
Visibility 10 miles    
Events      
T = Trace of Precipitation, MM = Missing Value Source: NWS Daily Summary

Daily Weather History Graph

Daily Weather History Graph

Search for Another Location

Airport or City:

Trip Planner

Search our weather history database for the weather conditions in past years. The results will help you decide how hot, cold, wet, or windy it might be!

Date:

Astronomy

Oct. 19, 2010 Rise Set
Actual Time 7:29 AM EDT 6:21 PM EDT
Civil Twilight 7:00 AM EDT 6:50 PM EDT
Nautical Twilight 6:27 AM EDT 7:23 PM EDT
Astronomical Twilight 5:54 AM EDT 7:56 PM EDT
Moon 4:33 PM EDT (10/19) 4:08 AM EDT (10/19)
Length of Visible Light 11h 50m
Length of Day
10h 52m
Waxing Gibbous, 89% of the Moon is Illuminated
Oct 19
Waxing Gibbous
Oct 22
Full
Oct 30
Last Quarter
Nov 6
New
Nov 13
First Quarter

Hourly Weather History & Observations

Time (EDT) Temp. Windchill Dew Point Humidity Pressure Visibility Wind Dir Wind Speed Gust Speed Precip Events Conditions
12:54 AM 41.0 °F 39.0 °F 35.1 °F 79% 29.93 in 10.0 mi SSW 3.5 mph - N/A   Overcast
1:54 AM 42.1 °F 40.2 °F 35.1 °F 76% 29.92 in 10.0 mi SSW 3.5 mph - N/A   Overcast
2:54 AM 42.1 °F 38.4 °F 36.0 °F 79% 29.90 in 10.0 mi SW 5.8 mph - N/A   Overcast
3:54 AM 42.1 °F 39.2 °F 37.0 °F 82% 29.89 in 10.0 mi SW 4.6 mph - N/A   Overcast
4:54 AM 41.0 °F 37.1 °F 37.0 °F 86% 29.89 in 10.0 mi SW 5.8 mph - N/A   Overcast
5:54 AM 42.1 °F 39.2 °F 37.9 °F 85% 29.90 in 10.0 mi SW 4.6 mph - N/A   Overcast
6:54 AM 41.0 °F 38.0 °F 39.0 °F 93% 29.91 in 10.0 mi SW 4.6 mph - N/A   Overcast
7:54 AM 42.1 °F 39.2 °F 39.0 °F 89% 29.91 in 10.0 mi SW 4.6 mph - N/A   Overcast
8:54 AM 43.0 °F 39.5 °F 39.9 °F 89% 29.92 in 10.0 mi SW 5.8 mph - N/A   Overcast
9:54 AM 46.9 °F - 41.0 °F 80% 29.91 in 10.0 mi SW 6.9 mph - N/A   Scattered Clouds
10:54 AM 53.1 °F - 35.1 °F 50% 29.90 in 10.0 mi WSW 11.5 mph - N/A   Scattered Clouds
11:54 AM 54.0 °F - 35.1 °F 49% 29.90 in 10.0 mi West 9.2 mph 21.9 mph N/A   Scattered Clouds
12:54 PM 54.0 °F - 33.1 °F 45% 29.88 in 10.0 mi West 9.2 mph - N/A   Mostly Cloudy
1:54 PM 54.0 °F - 34.0 °F 47% 29.87 in 10.0 mi West 10.4 mph 17.3 mph N/A   Mostly Cloudy
3:54 PM 54.0 °F - 35.1 °F 49% 29.85 in 10.0 mi West 9.2 mph - 0.00 in   Mostly Cloudy
4:54 PM 54.0 °F - 34.0 °F 47% 29.86 in 10.0 mi West 9.2 mph - N/A   Mostly Cloudy
5:54 PM 53.1 °F - 35.1 °F 50% 29.86 in 10.0 mi West 8.1 mph - N/A   Mostly Cloudy
6:54 PM 51.1 °F - 34.0 °F 52% 29.88 in 10.0 mi WSW 8.1 mph - N/A   Mostly Cloudy
7:54 PM 46.9 °F - 35.1 °F 63% 29.88 in 10.0 mi SW 6.9 mph - N/A   Scattered Clouds
8:54 PM 45.0 °F 41.2 °F 34.0 °F 65% 29.89 in 10.0 mi WSW 6.9 mph - N/A   Partly Cloudy
9:54 PM 43.0 °F 38.8 °F 34.0 °F 71% 29.90 in 10.0 mi SW 6.9 mph - N/A   Partly Cloudy
10:54 PM 44.1 °F 40.1 °F 34.0 °F 68% 29.90 in 10.0 mi SW 6.9 mph - N/A   Scattered Clouds
11:54 PM 41.0 °F 38.0 °F 34.0 °F 76% 29.90 in 10.0 mi SSW 4.6 mph - N/A   Scattered Clouds